Weather in Rodnikovka

Russia / Republic of Bashkortostan     53°35′49″N   54°48′46″E
temp.,
°C
wind,
m/s
gust,
m/s
humid.,
%
clouds,
%
prec.,
mm/h
press.,
hPa
HPBL,
m
28 february, sun
sun2823:00−4sse599699 1.9 1000261
02:00−2s4998100 1.4 998408
05:00−1ssw4898100 2.8 998372
08:00−3ssw3598100 0.5 998130
11:00−1w2398100 1.4 999208
14:00−2wnw459891 0.3 1000290
17:00−4nnw469595 0.5 1003400
20:00−10nw369798 0.1 1005128
1 march, mon
mon123:00−15wnw229797 0.1 100821
02:00−16w129893 0.0 101020
05:00−15w119796 0.1 101320
08:00−16wnw119790 0.1 101420
11:00−13nw129290 0.3 1016230
14:00−11nw2289100 0.1 1017382
17:00−11wnw3494100 0.3 1019334
20:00−16wnw239899 0.1 102037
2 march, tue
tue223:00−20w1110099 0.2 102120
02:00−22wsw2210083 0.0 102120
05:00−23sw3310085 0.0 102028
08:00−24ssw3410097 0.0 101964
11:00−19ssw599694 0.0 1017245
14:00−15ssw7129599 0.0 1014352
17:00−13s91593100 0.1 1012439
20:00−12ssw81593100 0.6 1010576
3 march, wed
wed323:00−10s81693100 1.1 1008581
02:00−6s71494100 0.9 1004651
05:00−5ssw61295100 2.0 1002631
08:00−5ssw51196100 0.8 1000451
11:00−3sw5894100 1.2 999507
14:00−2wsw459498 0.2 999450
17:00−3w479799 0.6 1000475
20:00−5wnw51095100 0.4 1001461
4 march, thu
thu423:00−8wnw4109699 0.6 1003325
02:00−10w369797 0.1 1004120
05:00−8wnw489699 0.4 1006255
08:00−13wnw479791 0.1 1008112
11:00−11wnw479486 0.1 1010303
14:00−8wnw579198 0.0 1012583
17:00−8wnw579199 0.1 1013617
20:00−13w369898 0.1 1015106